"Time","Temp","Dewpoint","Humidity","Pressure","Direction","Speed","Gust","Precip","PrecipRate"
"00:04:57","30.2","18.7","62","30.02","305","8.3","22.8","0.00","0.00"
"00:09:56","30.2","18.7","62","30.02","311","10.3","23","0.00","0.00"
"00:14:57","30.3","18.8","62","30.02","304","10.5","27.6","0.00","0.00"
"00:19:57","30.3","18.8","62","30.02","305","8.1","18.4","0.00","0.00"
"00:24:57","30.3","18.8","62","30.02","287","8.9","19.6","0.00","0.00"
"00:29:57","30.3","18.8","62","30.02","306","7.2","19.6","0.00","0.00"
"00:34:57","30.3","19.1","62.8","30.02","315","6.6","17.3","0.00","0.00"
"00:39:58","30.2","19.1","63","30.02","314","7.9","19.2","0.00","0.00"
"00:44:58","30.2","19.1","63.1","30.02","304","8.6","22.8","0.00","0.00"
"00:49:58","30.3","19.2","63","30.01","295","10","23","0.00","0.00"
"00:54:59","30.3","19.2","63","30.01","308","9.4","23","0.00","0.00"
"00:59:59","30.3","19.5","63.7","30.01","315","8","23","0.00","0.00"
"01:04:59","30.3","19.6","64","30.01","323","11","24.2","0.00","0.00"
"01:09:58","30.5","19.6","63.3","30.01","301","11.5","26.5","0.00","0.00"
"01:14:58","30.6","19.8","63.7","30.01","309","12.6","34.8","0.00","0.00"
"01:19:58","30.6","19.7","63.5","30.01","304","10.2","26.5","0.00","0.00"
"01:24:56","30.7","19.8","63.6","30.01","301","13.6","28.8","0.00","0.00"
"01:29:57","30.8","19.7","63","30.01","303","12","24.2","0.00","0.00"
"01:34:57","30.8","19.8","63.5","30.01","307","11.2","26.5","0.00","0.00"
"01:39:57","30.8","20","64","30.01","311","12.1","28.8","0.00","0.00"
"01:44:56","30.8","20","64","30.01","317","13.7","26.5","0.00","0.00"
"01:49:56","30.9","20","63.7","30.01","293","9.8","28.8","0.00","0.00"
"01:54:56","30.9","20.1","64","30.01","299","9.9","28.8","0.00","0.00"
"01:59:59","30.9","20.1","64","30.01","305","10.9","33.6","0.00","0.00"
"02:04:59","30.9","20.1","64","30.00","317","9.9","25.2","0.00","0.00"
"02:09:57","30.9","20.1","64","30.00","310","11.2","33.6","0.00","0.00"
"02:14:57","31.1","20.3","64","30.01","315","14","31.1","0.00","0.00"
"02:19:57","31.2","20.3","63.6","30.01","303","12.6","28.8","0.00","0.00"
"02:24:56","31.3","20.2","63.1","30.01","308","11.2","21.9","0.00","0.00"
"02:29:56","31.2","20.4","64","30.02","310","9.7","24.2","0.00","0.00"
"02:34:56","31.1","20.3","64","30.02","320","9.8","19.6","0.00","0.00"
"02:39:56","31.1","20.3","64","30.02","301","8.6","18.4","0.00","0.00"
"02:44:59","31.1","20.3","64","30.03","313","9.3","26.5","0.00","0.00"
"02:49:59","31.3","20.5","64","30.03","309","12.8","26.5","0.00","0.00"
"02:54:59","31.5","20.5","63.7","30.03","323","8.6","30","0.00","0.00"
"02:59:58","31.4","20.6","64","30.04","327","7","18","0.00","0.00"
"03:04:56","31.4","20.6","64","30.04","318","8.2","24.2","0.00","0.00"
"03:09:59","31.3","20.5","64","30.04","313","8","24.2","0.00","0.00"
"03:14:59","31.3","20.5","64","30.04","319","7.9","19.2","0.00","0.00"
"03:19:58","31.2","20.4","64","30.04","305","8.3","19.6","0.00","0.00"
"03:24:58","31.3","20.5","64","30.04","325","9.3","19.6","0.00","0.00"
"03:29:57","31.2","20.4","64","30.04","300","7.1","19.2","0.00","0.00"
"03:34:58","31.1","20.6","64.8","30.04","297","7.3","23","0.00","0.00"
"03:39:58","31.1","20.7","65","30.04","311","9","20.7","0.00","0.00"
"03:44:57","31.1","20.7","65","30.04","307","8.3","23","0.00","0.00"
"03:49:57","31.1","20.7","65","30.03","307","9.3","19.6","0.00","0.00"
"03:54:57","31.1","20.7","65","30.03","322","8.8","20.7","0.00","0.00"
"03:59:56","31.1","20.7","65","30.04","314","8.1","18.4","0.00","0.00"
"04:04:57","31","20.6","65","30.04","298","7.2","17.3","0.00","0.00"
"04:09:59","30.9","20.5","65","30.04","324","9.8","19.6","0.00","0.00"
"04:14:56","31","20.6","65","30.04","323","9.4","25.2","0.00","0.00"
"04:19:59","31.1","20.7","65","30.04","321","9.9","25.3","0.00","0.00"
"04:24:59","31.1","20.7","65","30.04","319","10.8","23","0.00","0.00"
"04:29:59","31.2","20.8","65","30.05","319","7.5","19.6","0.00","0.00"
"04:34:59","31.2","20.8","65","30.05","316","7.7","18.4","0.00","0.00"
"04:39:56","31.2","20.8","65","30.05","306","6.7","19.6","0.00","0.00"
"04:44:56","31.1","20.7","65","30.05","309","7.1","18","0.00","0.00"
"04:49:59","31.2","20.7","65","30.05","315","8.8","19.6","0.00","0.00"
"04:54:59","31.2","20.7","64.7","30.05","291","4.4","15","0.00","0.00"
"04:59:56","31","20.6","65","30.06","293","3.8","12","0.00","0.00"
"05:04:56","31","20.6","65","30.06","303","6.1","16.1","0.00","0.00"
"05:09:58","31","20.6","65","30.06","314","5.9","17.3","0.00","0.00"
"05:14:59","31","20.6","65","30.06","303","4.9","10.8","0.00","0.00"
"05:19:59","30.8","20.4","65","30.06","292","4.8","20.4","0.00","0.00"
"05:24:59","30.8","20.4","65","30.06","313","6.9","20.7","0.00","0.00"
"05:29:58","31","20.6","65","30.07","307","6.1","18.4","0.00","0.00"
"05:34:58","31","20.6","65","30.07","309","5.2","15","0.00","0.00"
"05:39:58","30.9","20.5","65","30.07","299","5.3","17.3","0.00","0.00"
"05:44:58","30.8","20.3","64.6","30.08","295","5.4","13.2","0.00","0.00"
"05:49:58","30.8","20.1","64.1","30.08","317","6.9","15","0.00","0.00"
"05:54:58","30.8","20","64","30.08","318","6.4","17.3","0.00","0.00"
"05:59:58","30.7","20","64.2","30.08","311","5.5","19.2","0.00","0.00"
"06:04:59","30.5","19.9","64.2","30.08","321","5.8","20.4","0.00","0.00"
"06:09:58","30.5","19.8","64","30.08","306","9.1","21.9","0.00","0.00"
"06:14:58","30.4","19.7","64","30.09","309","6.1","17.3","0.00","0.00"
"06:19:58","30.4","19.7","64","30.09","280","5.4","19.6","0.00","0.00"
"06:24:58","30.3","19.6","64","30.09","239","3.5","12","0.00","0.00"
"06:29:59","30.1","19.4","64","30.09","309","6.3","21.6","0.00","0.00"
"06:34:57","30.1","19.4","64","30.09","324","8.2","23","0.00","0.00"
"06:39:57","30.1","19.4","64","30.09","303","7.7","18.4","0.00","0.00"
"06:44:57","30.1","19.4","64","30.10","313","5.8","16.1","0.00","0.00"
"06:49:57","29.9","19.2","64","30.10","299","7.1","23","0.00","0.00"
"06:54:57","30","19.3","64","30.10","305","7.5","17.3","0.00","0.00"
"06:59:57","30","19.3","64","30.10","304","7","21.9","0.00","0.00"
"07:04:57","29.9","19.2","64","30.10","296","7","17.3","0.00","0.00"
"07:09:56","29.9","19.2","64","30.10","306","9.5","18.4","0.00","0.00"
"07:14:56","30","19.3","64","30.10","299","6.7","16.1","0.00","0.00"
"07:19:56","29.9","19.2","64","30.10","302","7","19.6","0.00","0.00"
"07:24:56","30","19.3","64","30.10","295","10.4","20.7","0.00","0.00"
"07:29:59","30.1","19.4","64","30.10","298","9.4","27.6","0.00","0.00"
"07:34:59","30.1","19.4","64","30.10","310","10.9","26.4","0.00","0.00"
"07:39:56","30.1","19.4","64","30.10","310","9.2","21.9","0.00","0.00"
"07:44:59","30","19.3","64","30.11","310","7.8","17.3","0.00","0.00"
"07:49:59","30.1","19.4","64","30.11","326","10.2","19.6","0.00","0.00"
"07:54:59","30.3","19.6","64","30.11","316","8.4","21.6","0.00","0.00"
"07:59:59","30.5","19.7","63.9","30.11","327","10.1","20.7","0.00","0.00"
"08:04:59","30.8","19.7","63.2","30.11","325","7.5","23","0.00","0.00"
"08:09:57","31","19.9","63","30.11","332","11","21.9","0.00","0.00"
"08:14:57","31.3","20.1","63","30.12","325","11","30","0.00","0.00"
"08:19:56","31.5","20.1","62.5","30.12","314","10.4","24.2","0.00","0.00"
"08:24:56","31.7","20.2","62","30.12","307","10.1","26.5","0.00","0.00"
"08:29:58","31.9","20.3","61.8","30.12","316","11.3","26.5","0.00","0.00"
"08:34:58","32.1","20.2","61.2","30.12","310","12.3","26.5","0.00","0.00"
"08:39:58","32.3","20.3","61","30.12","296","11","26.5","0.00","0.00"
"08:44:57","32.6","20.5","60.9","30.13","295","8.3","20.7","0.00","0.00"
"08:49:57","32.8","20.4","60","30.13","297","10.3","21.9","0.00","0.00"
"08:54:57","33","20.4","59.6","30.13","303","11.4","23","0.00","0.00"
"08:59:56","33.1","20.4","59.1","30.13","310","10.8","23","0.00","0.00"
"09:04:56","33.4","20.6","59","30.13","304","7.7","27.6","0.00","0.00"
"09:09:58","33.8","20.8","58.6","30.13","310","8.4","27.6","0.00","0.00"
"09:14:59","34","20.7","57.7","30.13","306","9.5","19.2","0.00","0.00"
"09:19:58","34","20.5","57.2","30.13","314","11.2","28.8","0.00","0.00"
"09:24:58","34.2","20.4","56.8","30.13","324","15","30","0.00","0.00"
"09:29:58","34.3","20.3","56.2","30.14","317","12.2","27.6","0.00","0.00"
"09:34:58","34.6","20.3","55.7","30.14","320","11.8","30","0.00","0.00"
"09:39:57","35.3","20.9","55.4","30.14","301","7.7","27.6","0.00","0.00"
"09:44:57","35.1","19.9","53.5","30.14","321","13.9","33.6","0.00","0.00"
"09:49:57","35.3","20.3","54.1","30.14","316","10.3","25.2","0.00","0.00"
"09:54:57","35.6","19.9","52.6","30.14","323","12.7","28.8","0.00","0.00"
"09:59:57","35.9","20","52.1","30.15","318","10.3","31.2","0.00","0.00"
"10:04:57","36.3","20.1","51.6","30.15","352","8.1","25.3","0.00","0.00"
"10:09:56","36.4","19.6","50.3","30.15","333","12.3","27.6","0.00","0.00"
"10:14:57","36.2","19.3","49.9","30.15","328","12.4","31.2","0.00","0.00"
"10:19:56","36.6","19.1","48.9","30.15","326","12.6","26.5","0.00","0.00"
"10:24:57","36.6","19","48.6","30.15","326","12.3","33.6","0.00","0.00"
"10:29:57","36.5","18.6","47.8","30.15","331","15.3","33.4","0.00","0.00"
"10:34:57","36.7","18.5","47.4","30.15","328","12.5","28.8","0.00","0.00"
"10:39:58","37.5","19.4","47.7","30.15","332","9.1","31.2","0.00","0.00"
"10:44:58","38","19.1","46.3","30.15","326","9.5","23","0.00","0.00"
"10:49:58","37.9","18.6","45.5","30.15","322","10.9","24.2","0.00","0.00"
"10:54:58","38.3","19.1","45.5","30.15","310","10.4","27.6","0.00","0.00"
"10:59:58","38.9","19.7","45.7","30.15","296","6.7","27.6","0.00","0.00"
"11:04:59","39.1","18.7","43.4","30.15","324","11","21.9","0.00","0.00"
"11:09:57","39.3","19.1","43.8","30.15","315","9.8","21.6","0.00","0.00"
"11:14:58","39.7","19","43","30.15","315","10.2","26.4","0.00","0.00"
"11:19:59","39.4","18","41.7","30.15","338","13.6","27.6","0.00","0.00"
"11:24:56","40","19.5","43.6","30.15","317","7","25.3","0.00","0.00"
"11:29:57","41.4","19.9","41.9","30.15","309","6.7","24.2","0.00","0.00"
"11:34:57","40.9","18.5","40.2","30.15","309","11.2","31.2","0.00","0.00"
"11:39:57","40.5","17.6","39.2","30.15","310","11.6","24.2","0.00","0.00"
"11:44:58","40.4","17.9","39.8","30.15","330","13.1","26.5","0.00","0.00"
"11:49:58","40.7","17.8","39.2","30.15","333","13.4","26.5","0.00","0.00"
"11:54:58","41.4","17.2","37.2","30.15","322","11","26.5","0.00","0.00"
"11:59:59","42.2","17.7","36.8","30.15","322","10.8","26.4","0.00","0.00"
"12:04:56","42.1","16.8","35.7","30.15","329","12.9","26.5","0.00","0.00"
"12:09:59","42.1","17.2","36.3","30.15","316","10.1","24.2","0.00","0.00"
"12:14:56","42.3","17","35.8","30.15","334","11.2","24","0.00","0.00"
"12:19:56","44","19","36.4","30.14","332","6.8","19.6","0.00","0.00"
"12:24:57","43.7","17.7","34.9","30.14","335","11.2","21.9","0.00","0.00"
"12:29:58","43.8","19.3","37.1","30.14","297","8.7","23","0.00","0.00"
"12:34:59","43.6","17.3","34.5","30.14","330","10.7","24.2","0.00","0.00"
"12:39:58","44.8","19.7","36.5","30.14","310","7.4","21.6","0.00","0.00"
"12:44:56","44.2","16.1","31.9","30.14","327","13.9","25.3","0.00","0.00"
"12:49:57","43.6","15.9","32.4","30.13","333","13.2","27.6","0.00","0.00"
"12:54:58","44.2","16.5","32.5","30.13","317","11.7","27.6","0.00","0.00"
"12:59:56","44.6","17.3","33.2","30.13","327","9.4","24.2","0.00","0.00"
"13:04:57","45.5","17.6","32.4","30.13","313","9.9","28.8","0.00","0.00"
"13:09:56","45.5","17.3","32","30.13","320","9.2","20.7","0.00","0.00"
"13:14:58","45.8","17.7","32.2","30.13","334","8.8","21.9","0.00","0.00"
"13:19:56","46.2","17.4","31.3","30.13","326","7.6","17.3","0.00","0.00"
"13:24:58","46.5","18.5","32.4","30.13","312","7.9","27.6","0.00","0.00"
"13:29:56","46.6","17.4","30.9","30.13","324","11","22.8","0.00","0.00"
"13:34:58","46.1","16.4","30.2","30.13","309","10.4","27.6","0.00","0.00"
"13:39:57","46.8","17.4","30.6","30.13","324","10.7","26.4","0.00","0.00"
"13:44:58","46.6","17.2","30.6","30.13","309","11.1","22.8","0.00","0.00"
"13:49:59","47.2","17.5","30.2","30.12","288","8.6","23","0.00","0.00"
"13:54:56","47.4","17.9","30.5","30.12","324","9.5","19.6","0.00","0.00"
"13:59:58","47.8","17.8","29.9","30.12","334","9.7","33.6","0.00","0.00"
"14:04:59","48.2","16.8","28.3","30.12","339","11","25.3","0.00","0.00"
"14:09:58","48.8","19.4","30.9","30.12","295","7.4","21.9","0.00","0.00"
"14:14:56","49.6","19.2","29.7","30.12","326","7.8","20.7","0.00","0.00"
"14:19:57","50","19.4","29.6","30.11","302","7.1","17.3","0.00","0.00"
"14:24:58","49.7","17.9","28.1","30.11","345","10.5","24","0.00","0.00"
"14:29:59","48.8","17.6","28.6","30.11","316","9.2","24.2","0.00","0.00"
"14:34:57","49.4","18.4","29","30.10","339","9.8","27.6","0.00","0.00"
"14:39:58","49.3","17.3","27.8","30.10","325","9.8","23","0.00","0.00"
"14:44:56","48.9","17.6","28.5","30.10","327","10.2","24.2","0.00","0.00"
"14:49:57","49","16.6","27.2","30.10","329","10.5","22.8","0.00","0.00"
"14:54:58","49.4","16.2","26.4","30.10","350","10.3","23","0.00","0.00"
"14:59:59","49.7","17","26.9","30.10","345","10.6","20.7","0.00","0.00"
"15:04:58","49.8","16.6","26.5","30.10","335","11.4","25.3","0.00","0.00"
"15:09:56","49.6","16.4","26.3","30.10","329","10.3","24.2","0.00","0.00"
"15:14:58","50.1","16.7","26.2","30.10","331","10.5","27.6","0.00","0.00"
"15:19:59","49.8","16.7","26.6","30.09","333","11.2","25.3","0.00","0.00"
"15:24:56","49.6","16.4","26.5","30.09","334","11","21.9","0.00","0.00"
"15:29:57","50","16.6","26.3","30.09","342","13.1","34.8","0.00","0.00"
"15:34:58","49.3","16.3","26.5","30.09","346","11.7","25.3","0.00","0.00"
"15:39:56","49.5","15.6","25.6","30.09","328","11.4","25.2","0.00","0.00"
"15:44:57","49","16.1","26.7","30.09","326","10.2","25.3","0.00","0.00"
"15:49:57","50.3","17.3","26.8","30.09","320","9.6","24.2","0.00","0.00"
"15:54:58","49.7","15.8","25.6","30.09","321","12.9","30","0.00","0.00"
"15:59:56","49.8","16.7","26.5","30.10","327","10.3","21.9","0.00","0.00"
"16:04:57","50.1","16.5","26","30.10","338","10.1","21.9","0.00","0.00"
"16:09:56","50.1","16.9","26.5","30.10","324","8.5","20.7","0.00","0.00"
"16:14:57","50.2","16.2","25.6","30.10","323","9.7","24","0.00","0.00"
"16:19:58","49.9","15.8","25.5","30.10","301","9.8","23","0.00","0.00"
"16:24:59","50.4","17.1","26.5","30.10","312","8.2","17.3","0.00","0.00"
"16:29:56","50.1","16.6","26.2","30.10","296","9.3","17.3","0.00","0.00"
"16:34:57","50.2","16.1","25.5","30.10","331","12.3","30","0.00","0.00"
"16:39:59","49.8","15.9","25.7","30.10","312","8.6","27.6","0.00","0.00"
"16:44:57","50","16.6","26.3","30.10","318","10.7","24.2","0.00","0.00"
"16:49:58","49.9","16.2","25.8","30.10","326","9.7","23","0.00","0.00"
"16:54:59","50.6","17.2","26.3","30.10","304","8","20.4","0.00","0.00"
"16:59:56","50.4","15.8","25","30.10","336","10.9","28.8","0.00","0.00"
"17:04:57","50.3","16.5","25.8","30.10","342","11.3","23","0.00","0.00"
"17:09:56","50.1","15.6","25","30.10","338","11.6","27.6","0.00","0.00"
"17:14:58","50.2","16.2","25.6","30.10","351","11.3","23","0.00","0.00"
"17:19:59","50.1","15.9","25.3","30.10","330","9","23","0.00","0.00"
"17:24:56","50.2","16.6","26","30.10","307","7.1","20.7","0.00","0.00"
"17:29:57","50.4","16.5","25.7","30.10","295","5.3","13.2","0.00","0.00"
"17:34:58","50.3","16.3","25.5","30.10","331","8.1","20.7","0.00","0.00"
"17:39:56","50","15.7","25.2","30.10","334","9.6","20.7","0.00","0.00"
"17:44:57","49.9","15.8","25.4","30.10","333","8.5","21.6","0.00","0.00"
"17:49:58","49.9","16.5","26.2","30.10","348","9.9","23","0.00","0.00"
"17:54:56","49.7","15.8","25.6","30.10","339","11.5","31.2","0.00","0.00"
"17:59:57","49.6","15.8","25.7","30.10","330","8.4","21.9","0.00","0.00"
"18:04:58","49.7","16.3","26.1","30.10","339","7.2","15","0.00","0.00"
"18:09:57","49.9","16.8","26.6","30.10","326","5.9","20.4","0.00","0.00"
"18:14:59","49.9","16.4","26.1","30.10","323","7.5","20.7","0.00","0.00"
"18:15:22","49.7","17","27","30.10","303","5.6","11.5","0.00","0.00"
"18:34:56","48.7","16.2","27","30.11","318","5","10.8","0.00","0.00"
"18:39:58","48.6","16.1","27","30.11","317","7.2","20.7","0.00","0.00"
"18:44:56","48.1","15.3","26.6","30.12","321","8.2","20.7","0.00","0.00"
"18:49:58","47.8","15.5","27.1","30.12","306","8.4","19.6","0.00","0.00"
"18:54:59","47.5","15.6","27.6","30.12","317","8.7","22.8","0.00","0.00"
"18:59:56","47.2","14.9","27","30.13","341","8.1","23","0.00","0.00"
"19:04:56","47","15.4","27.9","30.13","356","4.8","15.6","0.00","0.00"
"19:09:59","46.7","15.3","28","30.13","325","6.6","17.3","0.00","0.00"
"19:14:56","46.6","15.6","28.5","30.13","318","3.2","11.5","0.00","0.00"
"19:19:58","46.3","15.7","29","30.13","355","3.6","13.2","0.00","0.00"
"19:24:59","45.9","15.8","29.4","30.13","314","2.8","13.2","0.00","0.00"
"19:29:57","45.6","15.9","30","30.14","334","4.1","12.7","0.00","0.00"
"19:34:58","45.5","15.9","30.2","30.14","301","3.8","9.6","0.00","0.00"
"19:39:58","45.3","16.2","30.8","30.14","317","3.1","7.2","0.00","0.00"
"19:44:59","45.1","16.2","31","30.14","324","2.8","8.4","0.00","0.00"
"19:49:57","44.9","16.2","31.2","30.14","324","3.9","7.2","0.00","0.00"
"19:54:58","44.8","16","31","30.14","292","4.8","10.8","0.00","0.00"
"19:59:59","44.9","16.3","31.4","30.15","320","5.6","14.4","0.00","0.00"
"20:04:56","44.8","16.5","31.7","30.15","316","5.3","15","0.00","0.00"
"20:09:59","44.6","16.4","31.8","30.15","318","4.6","11.5","0.00","0.00"
"20:14:59","44.5","16.1","31.5","30.15","315","4.3","12","0.00","0.00"
"20:19:57","44.5","16.2","31.7","30.15","315","5.1","12","0.00","0.00"
"20:24:58","44.5","15.8","31.2","30.15","317","4.7","12","0.00","0.00"
"20:29:59","44.4","15.9","31.4","30.16","322","5.7","13.2","0.00","0.00"
"20:34:57","44.3","16.2","31.9","30.16","312","4.8","12","0.00","0.00"
"20:39:59","44.2","16.2","32","30.16","317","4.2","8.4","0.00","0.00"
"20:44:56","44","16.2","32.2","30.16","324","5.6","17.3","0.00","0.00"
"20:49:58","44","16.4","32.5","30.16","318","4.7","8.4","0.00","0.00"
"20:54:59","43.8","16.5","33","30.16","323","5.4","10.8","0.00","0.00"
"20:59:56","43.7","16.4","33","30.16","328","6.2","15","0.00","0.00"
"21:04:57","43.8","16.4","32.8","30.16","330","5.2","15","0.00","0.00"
"21:09:56","43.8","16.5","33","30.16","339","4.8","15","0.00","0.00"
"21:14:57","43.6","16.3","33","30.16","330","3.8","7.2","0.00","0.00"
"21:19:58","43.3","16.5","33.5","30.16","322","5.4","15","0.00","0.00"
"21:24:56","43.2","16.7","34","30.16","327","3.7","8.1","0.00","0.00"
"21:29:56","42.9","16.4","34","30.16","320","4.4","8.4","0.00","0.00"
"21:34:59","42.9","16.4","34","30.16","318","5.2","10.8","0.00","0.00"
"21:39:57","42.9","16.4","34","30.16","306","4.1","7.2","0.00","0.00"
"21:44:59","42.7","16.2","34","30.16","327","4.5","8.4","0.00","0.00"
"21:49:56","42.7","16.3","34.1","30.16","312","3.4","8.1","0.00","0.00"
"21:54:58","42.4","16.6","34.9","30.16","313","3.9","6","0.00","0.00"
"21:59:56","42.2","16.5","35","30.16","305","3.5","6","0.00","0.00"
"22:04:57","42.1","16.4","35","30.16","329","3.9","10.8","0.00","0.00"
"22:09:59","42.1","16.4","35.1","30.16","306","2.7","6","0.00","0.00"
"22:14:58","41.8","16.2","35.2","30.16","332","2","4.8","0.00","0.00"
"22:19:57","41.5","16.4","35.9","30.16","355","1.4","3.6","0.00","0.00"
"22:24:59","41.1","16.5","36.6","30.16","355","0.1","1.2","0.00","0.00"
"22:29:57","40.6","16.4","37.2","30.16","355","0","1.2","0.00","0.00"
"22:34:59","40.1","16.3","37.7","30.16","355","0","1.2","0.00","0.00"
"22:39:58","39.6","17.2","40.1","30.16","355","0.2","1.2","0.00","0.00"
"22:44:56","38.8","17.3","41.3","30.17","355","0","1.2","0.00","0.00"
"22:49:57","38.2","17.2","42.2","30.17","355","0","0","0.00","0.00"
"22:54:59","37.6","16.9","42.6","30.17","355","0","0","0.00","0.00"
"22:59:58","37.1","16.7","43.1","30.17","355","0","0","0.00","0.00"
"23:04:59","36.9","16.6","43.2","30.17","355","0","0","0.00","0.00"
"23:09:59","36.9","16.7","43.5","30.17","355","0.3","2.4","0.00","0.00"
"23:14:58","36.9","17","44","30.17","355","0.2","2.4","0.00","0.00"
"23:19:57","36.9","16.7","43.3","30.17","355","0.3","2.4","0.00","0.00"
"23:24:59","36.8","17.5","45.3","30.17","355","0","0","0.00","0.00"
"23:29:57","36.5","17.6","45.9","30.17","355","0","0","0.00","0.00"
"23:34:58","35.9","18.1","48.1","30.17","355","0","0","0.00","0.00"
"23:39:57","35.4","17.5","47.7","30.17","355","0","0","0.00","0.00"
"23:44:59","35.1","17.7","48.8","30.17","355","0.1","1.2","0.00","0.00"
